Location: Ayer Observatory
(42.2600°N, 71.0700°W)
Time: 05:39:19
(UTC-04:00)

PicSat - Visible Passes

Search period start: 20 July 2019 00:00
Search period end: 30 July 2019 00:00
Orbit: 486 x 500 km, 97.5° (Epoch: 20 July)

Date Brightness Start Highest point End Pass type
(mag) Time Alt. Az. Time Alt. Az. Time Alt. Az.
20 Jul ? 21:14:25 10° E 21:16:22 14° ENE 21:18:19 10° NNE visible
20 Jul ? 22:48:57 35° SW 22:49:38 39° W 22:53:04 10° NNW visible
21 Jul ? 22:27:04 52° S 22:27:52 78° WSW 22:31:32 10° NNW visible
22 Jul ? 22:05:11 38° SE 22:06:11 53° ENE 22:09:44 10° N visible
23 Jul ? 21:43:17 22° ESE 21:44:33 28° ENE 21:47:42 10° N visible
23 Jul ? 23:17:50 18° WSW 23:18:11 18° W 23:20:45 10° NW visible
24 Jul ? 21:21:24 13° E 21:23:00 16° ENE 21:25:19 10° NNE visible
24 Jul ? 22:55:56 31° WSW 22:56:20 32° W 22:59:38 10° NNW visible
25 Jul ? 22:34:03 55° SW 22:34:34 64° W 22:38:10 10° NNW visible
26 Jul ? 22:12:09 51° SE 22:12:50 65° ENE 22:16:27 10° N visible
27 Jul ? 21:50:15 29° ESE 21:51:11 33° ENE 21:54:29 10° N visible
27 Jul ? 23:24:48 15° W 23:24:54 15° W 23:27:04 10° NW visible
28 Jul ? 21:28:22 16° E 21:29:35 19° ENE 21:32:12 10° NNE visible
28 Jul ? 23:02:54 27° W 23:03:01 27° W 23:06:09 10° NW visible
29 Jul ? 21:07:02 10° E 21:08:04 11° ENE 21:09:06 10° NE visible
29 Jul ? 22:41:01 51° WSW 22:41:12 51° W 22:44:46 10° NNW visible
